Location: Clegg Observatory
(38.9178°N, 78.6069°W)
Time: 15:53:48
(UTC-04:00)

Cosmos 1151 Rocket - Visible Passes

Search period start: 31 May 2016 00:00
Search period end: 10 June 2016 00:00
Orbit: 592 x 617 km, 82.5° (Epoch: 31 May)

Date Brightness Start Highest point End Pass type
(mag) Time Alt. Az. Time Alt. Az. Time Alt. Az.
31 May 4.7 00:51:53 10° NNE 00:54:35 28° NE 00:54:35 28° NE visible
31 May 5.3 02:30:08 10° NW 02:31:26 15° WNW 02:31:26 15° WNW visible
01 Jun 4.3 01:04:28 10° N 01:07:19 38° NNE 01:07:19 38° NNE visible
02 Jun 4.2 01:17:14 10° N 01:20:04 41° NNW 01:20:04 41° NNW visible
02 Jun 5.4 23:54:23 10° NE 23:55:58 13° ENE 23:55:58 13° ENE visible
03 Jun 4.5 01:30:15 10° NNW 01:32:49 31° NW 01:32:49 31° NW visible
04 Jun 4.9 00:06:12 10° NNE 00:08:44 21° ENE 00:08:44 21° ENE visible
04 Jun 4.9 01:43:30 10° NNW 01:45:35 21° WNW 01:45:35 21° WNW visible
05 Jun 4.4 00:18:33 10° N 00:21:31 32° NE 00:21:31 32° NE visible
05 Jun 5.4 01:57:11 10° NW 01:58:22 14° WNW 01:58:22 14° WNW visible
06 Jun 3.9 00:31:11 10° N 00:34:18 45° NNE 00:34:18 45° NNE visible
07 Jun 3.9 00:44:02 10° NNW 00:47:06 45° NNW 00:47:06 45° NNW visible
07 Jun 5.1 23:20:48 10° NE 23:23:04 15° ENE 23:23:04 15° ENE visible
08 Jun 4.4 00:57:05 10° NNW 00:59:55 32° NW 00:59:55 32° NW visible
08 Jun 4.5 23:32:48 10° NNE 23:35:53 24° ENE 23:35:53 24° ENE visible
09 Jun 5.0 01:10:25 10° NW 01:12:45 21° WNW 01:12:45 21° WNW visible
09 Jun 3.9 23:45:15 10° N 23:48:44 40° NE 23:48:44 40° NE visible
